This is the latest recevied weather packets stored in our database for station/object N9CQL. If no packets are shown the sender has not sent any weather packets the latest 10 day(s).
| Time | Temp. | Humidity | Pressure | Rain* | Wind** | Luminosity | Snow |
|---|---|---|---|---|---|---|---|
| 1777088120 | 16.67° C | 78% | 1009.2 hPa | 0 mm | - | 0 W/m² | - |
| 1777087815 | 16.67° C | 77% | 1009.1 hPa | 0 mm | - | 0 W/m² | - |
| 1777087510 | 16.67° C | 77% | 1009 hPa | 0 mm | - | 0 W/m² | - |
| 1777087204 | 16.67° C | 76% | 1008.8 hPa | 0 mm | - | 0 W/m² | - |
| 1777086899 | 17.22° C | 75% | 1008.8 hPa | 0 mm | - | 0 W/m² | - |
| 1777086595 | 17.22° C | 74% | 1008.9 hPa | 0 mm | - | 0 W/m² | - |
| 1777086291 | 17.78° C | 72% | 1008.9 hPa | 0 mm | - | 0 W/m² | - |
| 1777085990 | 18.33° C | 70% | 1008.7 hPa | 0 mm | - | 0 W/m² | - |
| 1777085689 | 18.89° C | 67% | 1008.8 hPa | 0 mm | - | 0 W/m² | - |
| 1777085383 | 18.89° C | 66% | 1008.7 hPa | 0 mm | - | 0 W/m² | - |
| 1777085081 | 18.89° C | 66% | 1008.7 hPa | 0 mm | - | 0 W/m² | - |
| 1777084776 | 18.89° C | 66% | 1008.6 hPa | 0 mm | - | 0 W/m² | - |
| 1777084471 | 18.89° C | 66% | 1008.6 hPa | 0 mm | - | 0 W/m² | - |
| 1777084167 | 18.89° C | 65% | 1008.3 hPa | 0 mm | - | 0 W/m² | - |
| 1777083863 | 18.89° C | 65% | 1008.5 hPa | 0 mm | - | 0 W/m² | - |
| 1777083560 | 18.89° C | 65% | 1008.1 hPa | 0 mm | - | 0 W/m² | - |
| 1777083257 | 18.89° C | 67% | 1007.9 hPa | 0 mm | - | 0 W/m² | - |
| 1777082953 | 18.89° C | 67% | 1008 hPa | 0 mm | - | 0 W/m² | - |
| 1777082647 | 18.33° C | 70% | 1007.9 hPa | 0 mm | - | 0 W/m² | - |
| 1777082343 | 17.78° C | 73% | 1007.7 hPa | 0 mm | - | 0 W/m² | - |
| 1777082038 | 17.78° C | 74% | 1007.7 hPa | 0 mm | - | 0 W/m² | - |
| 1777081733 | 17.78° C | 74% | 1007.6 hPa | 0 mm | - | 0 W/m² | - |
| 1777081428 | 17.78° C | 74% | 1007.6 hPa | 0 mm | - | 0 W/m² | - |
| 1777081125 | 17.78° C | 74% | 1007.5 hPa | 0 mm | - | 0 W/m² | - |
| 1777080818 | 18.33° C | 73% | 1007.5 hPa | 0 mm | - | 0 W/m² | - |
* Rain latest hour (hover to see other rain measurements)
** Current wind speed in m/s (hover to see current wind gust speed)